Flag for India Weather past 2 weeks in Chittorgarh, Rajasthan, India

Now
88 °F

Haze.


Feels Like: 87 °F
Forecast: 66 / 90 °F
Wind: 6 mph from East

Location: Jaipur / Sanganer

Current Time: Oct 26, 2014 at 3:10:05 PM

Latest Report: Oct 26, 2014 at 2:00 PM


Visibility: 2 mi

Pressure: 30.01 "Hg

Humidity: 35%

Dew point: 57 °F

Location of ChittorgarhLocation

Historic Weather in Chittorgarh — Graph

°F

Chittorgarh temperature yesterday

Maximum temperature yesterday: 93 °F (at 3:00 PM)
Minimum temperature yesterday: 75 °F (at 7:00 PM)
Average temperature yesterday: 82 °F

Past Weeks' High & Low Weather Summary

 TemperatureHumidityPressure
High95 °F (Oct 11, 1:00 PM)94% (Oct 16, 5:00 AM)30.12 "Hg (Oct 16, 5:00 AM)
Low64 °F (Oct 18, 6:00 AM)13% (Oct 11, 4:00 PM)29.65 "Hg (Oct 11, 3:00 PM)
Average80 °F46%29.96 "Hg
* Reported Oct 11 1:00 PM — Oct 26 1:00 PM, Chittorgarh, Weather by CustomWeather, © 2014

Note: Actual official high and low records may vary slightly from our data, if they occured in-between our weather recording intervals... More about our weather records

Advertising

Chittorgarh weather history for previous 24 hours

 ConditionsComfort  
Time TempWeatherWind HumidityBarometerVisibility
1:00 PM
Oct 26
86 °FHaze.7 mph40%30.01 "Hg2 mi
12:00 PM84 °FHaze.6 mph43%30.04 "Hg2 mi
11:30 AM84 °FHaze.7 mph43%30.07 "Hg2 mi
10:00 AM81 °FClear.7 mph45%30.07 "Hg1 mi
9:00 AM77 °FClear.8 mph51%30.07 "Hg1 mi
8:00 AM73 °FClear.8 mph53%30.04 "Hg1 mi
7:00 AM72 °FClear.5 mph53%30.01 "Hg1 mi
6:00 AM72 °FPassing clouds.6 mph53%30.01 "Hg1 mi
5:00 AM73 °FPassing clouds.6 mph50%29.98 "Hg1 mi
1:00 AM72 °FPassing clouds.10 mph61%29.98 "Hg1 mi
12:00 AM72 °FPassing clouds.5 mph57%29.98 "Hg1 mi
11:00 PM
Oct 25
75 °FPassing clouds.No wind50%29.98 "Hg2 mi
10:00 PM75 °FPassing clouds.1 mph47%29.98 "Hg2 mi
9:00 PM77 °FThunderstorms. Passing clouds.6 mph44%29.98 "Hg2 mi
8:00 PM77 °FThunderstorms. Passing clouds.9 mph44%29.95 "Hg2 mi
7:30 PM79 °FThunderstorms. Passing clouds.8 mph39%29.95 "Hg2 mi
7:00 PM75 °FThunderstorms. Passing clouds.18 mph54%29.92 "Hg2 mi
6:00 PM82 °FPartly sunny.14 mph32%29.92 "Hg2 mi
5:30 PM86 °FScattered clouds.8 mph27%29.89 "Hg2 mi
4:30 PM90 °FScattered clouds.6 mph26%29.86 "Hg2 mi
4:00 PM91 °FScattered clouds.6 mph24%29.86 "Hg2 mi
3:00 PM93 °FScattered clouds.6 mph24%29.86 "Hg2 mi
Weather by CustomWeather, © 2014

See weather overviewHow to use our weather pages